Weather in Rybinka

Russia / Volgograd Oblast     49°59′31″N   44°46′34″E
temp.,
°C
wind,
m/s
gust,
m/s
humid.,
%
clouds,
%
prec.,
mm/h
press.,
hPa
HPBL,
m
7 march, sun
sun700:00−4nw4896100 1.4 1014430
03:00−8nw6119191 1.5 1016355
06:00−10nw5119387 0.0 1018291
09:00−8wnw598852 0.0 1019372
12:00−4w69720 0.0 10191178
15:00−2wsw7118149 0.1 10161171
18:00−3sw61380100 0.1 1014505
21:00−3sw81677100 0.1 1012771
8 march, mon
mon800:00−3sw81778100 0.0 1010793
03:00−3sw9177986 0.0 1009756
06:00−3wsw8158784 0.0 1008719
09:00−2wsw8148588 0.0 1009736
12:000wsw91384100 0.0 10091095
15:00+1wsw81380100 0.1 10081193
18:00−1wsw6128798 0.0 1008496
21:00−1sw6138781 0.0 1009395
9 march, tue
tue900:00−2w489787 0.6 1009292
03:00−3nw129493 1.9 100926
06:00−4nnw3497100 0.4 1010174
09:00−5nnw478999 0.8 1011370
12:00−4nw46830 0.0 1013628
15:00−3nw468045 0.0 1014808
18:00−6nnw368989 0.0 1014243
21:00−9nw479089 0.0 1016208
10 march, wed
wed1000:00−11nw479335 0.0 1017201
03:00−12nw489118 0.0 1019218
06:00−13nw49920 0.0 1020296
09:00−13nw58879 0.0 1022463
12:00−11nw578290 0.0 1023700
15:00−11nw697893 0.0 1023797
18:00−14nw498614 0.0 1024394
21:00−16nnw48917 0.0 1026361
11 march, thu
thu1100:00−18nnw37890 0.0 1027273
03:00−19nnw46900 0.0 1028217
06:00−20n35920 0.0 1029195
09:00−19n35840 0.0 1031261
12:00−15n34700 0.0 1032380
15:00−13n34670 0.0 1032433
18:00−15n22830 0.0 103225
21:00−17nnw12820 0.0 103320